Back to catalog

STARLINK-35145

AliveCommunicationsVLEO
NORAD 65685·PAYLOAD·🇺🇸 United States

Launched Sep 21, 2025 from Cape Canaveral Space Force Station

Loading…

Next Passes (next 24 hours)

TLE

FreshSource: CelesTrak SupGP

Epoch: Sep 14, 2026, 15:17 UTC

1 65685C 25212K   26257.63729167  .00059799  00000+0  17676-2 0  2579
2 65685  53.1577 184.8589 0001284 101.8271  20.9711 15.34346567    13

Track STARLINK-35145 in real time with AllMySat

Download on the App Store